TimePDT,TemperatureF,Dew PointF,Humidity,Sea Level PressureIn,VisibilityMPH,Wind Direction,Wind SpeedMPH,Gust SpeedMPH,PrecipitationIn,Events,Conditions,WindDirDegrees,DateUTC
12:56 AM,55.9,53.1,90,30.07,10.0,Calm,Calm,-,N/A,,Overcast,0,2013-05-08 07:56:00
1:56 AM,55.0,52.0,89,30.07,10.0,Calm,Calm,-,N/A,,Partly Cloudy,0,2013-05-08 08:56:00
2:56 AM,52.0,50.0,93,30.07,9.0,SW,3.5,-,N/A,,Partly Cloudy,230,2013-05-08 09:56:00
3:28 AM,51.8,48.2,88,30.08,10.0,Calm,Calm,-,N/A,,Scattered Clouds,0,2013-05-08 10:28:00
3:37 AM,51.8,51.8,100,30.08,10.0,Calm,Calm,-,N/A,,Mostly Cloudy,0,2013-05-08 10:37:00
3:51 AM,53.6,51.8,94,30.08,6.0,Calm,Calm,-,N/A,,Overcast,0,2013-05-08 10:51:00
3:56 AM,53.1,52.0,96,30.08,5.0,Calm,Calm,-,N/A,,Overcast,0,2013-05-08 10:56:00
4:33 AM,51.8,51.8,100,30.09,6.0,Calm,Calm,-,N/A,,Overcast,0,2013-05-08 11:33:00
4:56 AM,52.0,51.1,97,30.09,4.0,Calm,Calm,-,N/A,,Overcast,0,2013-05-08 11:56:00
5:56 AM,54.0,52.0,93,30.09,6.0,Calm,Calm,-,N/A,,Overcast,0,2013-05-08 12:56:00
6:56 AM,55.0,53.1,93,30.09,7.0,Calm,Calm,-,N/A,,Overcast,0,2013-05-08 13:56:00
7:56 AM,55.9,53.1,90,30.11,9.0,Calm,Calm,-,N/A,,Mostly Cloudy,0,2013-05-08 14:56:00
8:46 AM,60.8,53.6,77,30.11,10.0,Calm,Calm,-,N/A,,Mostly Cloudy,0,2013-05-08 15:46:00
8:56 AM,60.1,53.1,78,30.11,10.0,Calm,Calm,-,N/A,,Scattered Clouds,0,2013-05-08 15:56:00
9:56 AM,64.9,52.0,63,30.10,10.0,Variable,6.9,-,N/A,,Partly Cloudy,0,2013-05-08 16:56:00
10:56 AM,68.0,48.0,49,30.10,10.0,NW,11.5,-,N/A,,Clear,310,2013-05-08 17:56:00
11:56 AM,68.0,51.1,55,30.09,10.0,NW,18.4,-,N/A,,Clear,320,2013-05-08 18:56:00
12:56 PM,66.0,52.0,60,30.09,10.0,NW,18.4,-,N/A,,Clear,320,2013-05-08 19:56:00
1:56 PM,64.9,52.0,63,30.09,10.0,NW,19.6,27.6,N/A,,Scattered Clouds,320,2013-05-08 20:56:00
2:56 PM,63.0,51.1,65,30.09,10.0,NW,18.4,-,N/A,,Mostly Cloudy,310,2013-05-08 21:56:00
3:56 PM,64.0,50.0,60,30.09,10.0,NW,15.0,23.0,N/A,,Mostly Cloudy,310,2013-05-08 22:56:00
4:56 PM,62.1,50.0,65,30.09,10.0,NW,16.1,-,N/A,,Mostly Cloudy,320,2013-05-08 23:56:00
5:56 PM,61.0,48.9,64,30.10,10.0,NW,15.0,-,N/A,,Overcast,320,2013-05-09 00:56:00
6:56 PM,59.0,50.0,72,30.10,10.0,NW,12.7,-,N/A,,Overcast,320,2013-05-09 01:56:00
7:56 PM,57.0,50.0,77,30.10,10.0,NW,9.2,-,N/A,,Overcast,310,2013-05-09 02:56:00
8:56 PM,55.9,50.0,80,30.11,10.0,NW,9.2,-,N/A,,Overcast,310,2013-05-09 03:56:00
9:56 PM,55.0,51.1,86,30.13,10.0,NW,6.9,-,N/A,,Overcast,310,2013-05-09 04:56:00
10:56 PM,54.0,50.0,86,30.13,10.0,NW,4.6,-,N/A,,Mostly Cloudy,310,2013-05-09 05:56:00
11:56 PM,55.0,51.1,86,30.14,10.0,WNW,4.6,-,N/A,,Overcast,290,2013-05-09 06:56:00